Location: Chequamegon National Forest
(46.1070°N, 90.8420°W)
Time: 06:11:05
(UTC-05:00)

Daily predictions for brighter satellites

Satellite Brightness Start Highest point End
(mag) Time Altitude Azimuth Time Altitude Azimuth Time Altitude Azimuth
FENGYUN 3A 4.4 18:33:54 10° SE 18:38:37 32° ENE 18:43:23 10° N
RESURS DK-1 2.9 18:35:21 10° NNW 18:39:16 39° NE 18:43:10 10° SE
Meteor 1-16 Rocket 4.1 18:36:45 10° S 18:42:01 71° E 18:47:22 10° NNE
Lacrosse 5 rocket 2.8 18:38:40 10° W 18:42:51 36° NNW 18:46:50 10° NE
Cosmos 1328 3.9 18:39:58 10° N 18:43:58 86° W 18:47:55 10° S
Cosmos 2058 3.3 18:40:38 10° N 18:44:37 40° ENE 18:48:32 10° SSE
USA 116 4.4 18:39:37 10° NNE 18:44:43 73° ESE 18:50:05 10° S
Cosmos 1842 Rocket 4.1 18:40:46 10° SSE 18:44:54 38° E 18:49:02 10° NNE
Cosmos 2221 3.8 18:44:36 10° SE 18:47:40 19° E 18:50:44 10° NE
Landsat 4 3.7 18:44:35 10° NNE 18:48:20 88° ESE 18:52:04 10° SSW
CZ-2C R/B 3.7 18:43:55 10° NNE 18:48:29 84° ESE 18:52:57 10° SSW
Aureole 1 Rocket 3.7 18:42:21 10° SSW 18:48:50 78° ESE 18:53:42 10° NNE
ALOS 2.9 18:44:55 10° SE 18:49:09 35° ENE 18:53:25 10° N
Meteor 2-21 Rocket 4.4 18:43:11 10° S 18:49:15 80° E 18:55:20 10° N
Cosmos 1461 3.3 18:45:57 10° SW 18:49:58 66° NW 18:54:13 10° NNE
Cosmos 1484 Rocket 3.7 18:47:50 10° S 18:51:28 51° W 18:55:07 10° NNW
Atlas Centaur 2 4.1 18:50:13 10° SSW 18:52:19 13° S 18:54:37 10° SSE
Cosmos 921 Rocket 3.5 18:49:12 10° N 18:53:25 39° ENE 18:57:33 10° SE
Cosmos 2219 Rocket 3.4 18:49:37 10° N 18:54:02 23° NE 18:58:27 10° E
Ariane Rocket 4.3 18:49:23 10° S 18:54:15 45° W 18:59:11 10° NNW
MONITOR-E 4.2 18:51:24 10° SSE 18:54:25 53° ENE 18:57:27 10° N
ERS-2 2.8 18:51:42 10° S 18:55:21 60° WSW 18:59:02 10° NNW
Cosmos 1500 Rocket 3.6 18:51:41 10° N 18:55:59 54° ENE 19:00:12 10° SSE
Cosmos 1242 Rocket 4.3 18:52:48 10° SW 18:56:12 37° WNW 18:59:39 10° N
Cosmos 1703 3.3 18:52:32 10° N 18:56:26 55° ENE 19:00:16 10° SSE
Gbstr 26 Del rocket 3.8 18:52:13 10° WNW 18:56:53 54° NNE 19:02:17 12° E
Resurs 01 Rocket 3.6 18:59:58 11° ENE 19:00:42 11° ENE 19:01:50 10° NE
Meteor 1-28 Rocket 3.4 18:57:25 10° N 19:01:14 77° WNW 19:04:59 10° SSW
Cosmos 2056 Rocket 4.3 18:58:55 10° NNW 19:04:09 57° WSW 19:09:15 10° S
Abrixas rocket 2.3 19:01:10 10° W 19:04:28 75° NNW 19:07:04 15° ENE
Cosmos 2366 rocket 4.0 18:59:41 10° S 19:05:55 83° E 19:12:07 10° N
SPOT 3 Rocket 3.5 19:01:25 10° SSE 19:06:35 75° ENE 19:11:49 10° NNW
SL-16 R/B 3.5 19:02:17 10° NW 19:07:38 44° WSW 19:12:58 10° S
Cosmos 1726 3.6 19:08:36 10° SE 19:11:04 17° E 19:12:41 14° ENE
USA 267 4.5 19:09:11 13° E 19:12:46 20° ESE 19:17:22 10° SSE
Cosmos 1400 Rocket 3.0 19:08:51 10° NNW 19:12:55 75° W 19:16:53 10° S
Cosmos 2237 4.2 19:07:19 10° NNW 19:13:01 62° ENE 19:18:41 10° SE
Cosmos 1908 3.6 19:11:11 10° SSE 19:14:51 40° E 19:18:32 10° NNE
MOS 1 4.5 19:10:43 10° S 19:16:22 78° WSW 19:22:06 10° NNW
COSMO-SKYMED 1 2.5 19:14:09 10° NNE 19:18:32 85° ESE 19:22:51 10° SSW
CZ-4 R/B 3.4 19:15:16 10° SSW 19:19:05 33° W 19:22:53 10° NNW
GENESIS II 4.5 19:16:44 10° SSW 19:20:33 47° ESE 19:23:36 15° NE
Cosmos 2098 Rocket 4.0 19:17:19 10° SSE 19:21:20 33° E 19:26:19 10° NNE
Cosmos 1452 Rocket 3.5 19:16:40 10° NNW 19:21:57 87° ENE 19:27:13 10° SSE
Cosmos 44 4.1 19:19:49 10° SSE 19:23:17 24° ESE 19:24:23 21° E
H-2A R/B 3.4 19:19:58 10° SE 19:23:32 35° ENE 19:27:08 10° N
METEOR-M 4.5 19:18:30 10° S 19:23:49 70° WSW 19:29:11 10° NNW
Cosmos 2237 Rocket 3.4 19:20:42 10° N 19:25:11 23° NE 19:27:16 19° ENE
Sich 1 4.0 19:23:35 10° NNE 19:27:19 27° ENE 19:28:51 22° ESE
SL-24 R/B - RUBIN 2 4.1 19:26:25 10° NW 19:31:20 66° WSW 19:35:44 10° SSE
NOAA 12 4.2 19:27:33 10° SSE 19:32:51 85° WSW 19:38:13 10° NNW
NOSS 3 (A) 4.4 19:30:24 10° SW 19:33:11 83° SE 19:34:59 23° NE
SL-16 R/B 4.0 19:31:21 10° N 19:34:22 14° NE 19:35:24 14° NE
Cosmos 1805 Rocket 3.8 19:30:10 10° N 19:34:24 46° ENE 19:38:38 10° SSE
Aureole 2 Rocket 3.5 19:32:00 10° N 19:35:29 32° ENE 19:36:10 30° E
Cosmos 1626 4.0 19:35:23 10° NNW 19:38:47 33° W 19:42:10 10° SSW
FREGAT/IRIS 2.6 19:37:46 30° SE 19:39:00 55° ENE 19:41:57 10° N
Cosmos 1000 Rocket 4.4 19:34:26 10° N 19:40:42 70° E 19:46:51 10° SSE
CZ-2D R/B 4.3 19:42:22 27° NE 19:42:22 27° NE 19:45:13 10° N
Cosmos 44 Rocket 3.7 19:38:16 10° S 19:42:33 36° ESE 19:43:51 30° E
Cosmos 1821 Rocket 4.0 19:36:57 10° SSE 19:42:55 55° E 19:49:00 10° NNE
Cosmos 1666 Rocket 4.0 19:39:03 10° N 19:43:06 37° ENE 19:44:09 32° ESE
Cosmos 1934 Rocket 4.2 19:42:34 10° SSE 19:48:35 47° E 19:54:38 10° NNE
Cosmos 1980 4.4 19:43:43 10° NNW 19:48:49 33° NE 19:50:12 29° E
Cosmos 2360 Rocket 3.1 19:43:40 10° NW 19:49:07 49° WSW 19:54:32 10° S
COSMOS 2428 2.6 19:43:38 10° NNW 19:49:21 80° ENE 19:54:29 13° SSE
USA 234 3.9 19:46:38 23° ENE 19:50:16 41° NNE 19:56:19 10° NW
Cosmos 2239 Rocket 4.4 19:44:40 10° S 19:50:41 63° E 19:56:47 10° NNE
Cosmos 1633 Rocket 3.5 19:47:19 10° N 19:51:27 38° ENE 19:51:39 37° E
Cosmos 2333 Rocket 2.5 19:47:07 10° NNW 19:52:41 48° ENE 19:54:58 32° ESE
SL-8 R/B 3.6 19:49:32 10° WSW 19:54:21 73° SSE 19:56:05 39° E
Iridium 4 Rocket 3.7 19:50:27 10° S 19:56:00 88° E 20:01:54 10° N
Cosmos 1315 Rocket 3.9 19:52:26 10° NNW 19:56:21 47° W 20:00:18 10° S
Cosmos 2219 3.3 19:55:10 10° S 20:00:44 54° ESE 20:05:22 15° NE
Cosmos 1048 Rocket 3.8 19:58:37 10° SSW 20:03:43 73° ESE 20:08:50 10° NNE
ATLAS 5 CENTAUR R/B 4.4 20:02:57 10° NNW 20:05:24 13° N 20:07:56 10° NNE
Thor Agena Rocket 3.4 20:02:42 10° NNE 20:07:51 87° WNW 20:12:55 10° SSW
BREEZE M DEB (TANK) 1.9 20:03:53 10° WNW 20:07:40 68° NW 20:07:40 68° NW
FengYun 1-2 T 4.3 20:03:05 10° SSE 20:08:36 79° WSW 20:14:07 10° NNW
Cosmos 2123 Rocket 3.9 20:02:53 10° N 20:09:05 66° E 20:14:34 14° SSE
Envisat 3.2 20:12:32 46° ENE 20:12:32 46° ENE 20:17:22 10° N
APEX 4.3 20:12:51 10° SSW 20:14:29 27° SW 20:14:29 27° SW
Cosmos 1605 Rocket 4.0 20:11:13 10° SSE 20:17:07 52° E 20:23:00 10° NNE
CZ-4C R/B 2.1 20:13:52 10° SSW 20:19:01 61° ESE 20:20:08 51° ENE
MOS 1-B Rocket 3.8 20:19:10 34° SSE 20:21:48 74° ENE 20:27:55 10° NNW
SJ-6B 3.1 20:21:08 42° SSW 20:22:07 59° WSW 20:25:50 10° NNW
Lacrosse 5 rocket 3.4 20:19:55 10° NW 20:23:04 19° N 20:23:54 18° N
BREEZE M DEB (TANK) 4.1 20:05:51 10° WNW 20:24:05 87° NNE 20:25:47 50° ESE
Cosmos 158 Rocket 4.3 20:19:11 10° SSW 20:24:12 64° WNW 20:29:24 10° NNE
Cosmos 2221 3.8 20:20:49 10° SSW 20:24:55 41° WNW 20:29:04 10° N
ALOS 4.3 20:22:40 10° SSW 20:26:39 28° W 20:30:39 10° NW
Resurs 01 Rocket 2.2 20:37:34 50° N 20:37:34 50° N 20:40:52 10° NNW
Cosmos 2219 Rocket 2.3 20:32:57 10° NNW 20:38:32 70° WSW 20:40:12 45° S
Cosmos 1331 Rocket 3.9 20:34:34 10° NNW 20:39:39 80° NNE 20:39:39 80° NNE
Atlas Centaur 2 4.4 20:38:24 10° SSW 20:40:18 12° S 20:40:43 12° S
Gbstr 26 Del rocket 3.9 20:38:54 10° WNW 20:44:07 64° SW 20:44:51 59° S
Cosmos 1726 3.8 20:42:44 10° SW 20:46:06 33° WNW 20:49:30 10° N
Cosmos 1447 Rocket 4.3 20:42:21 10° N 20:48:44 73° E 20:48:44 73° E
Meteor 2-10 4.4 20:50:20 10° SSW 20:55:17 59° WNW 21:00:22 10° N
USA 267 3.1 20:56:35 72° SE 20:56:35 72° SE 21:03:03 10° SW
NOSS 0 Rocket 4.2 20:58:30 10° NW 21:04:34 61° WSW 21:05:23 56° SW
Cosmos 2237 Rocket 2.5 21:04:09 10° NNW 21:09:07 64° WNW 21:09:07 64° WNW
Meteor 2-3 Rocket 4.3 21:08:20 10° NNW 21:12:47 54° NNW 21:12:47 54° NNW
Spot 2 Rocket 4.5 21:17:39 44° WNW 21:17:39 44° WNW 21:21:37 10° NNW
SL-16 R/B 3.4 21:14:03 10° NNW 21:17:17 34° N 21:17:17 34° N
USA 234 3.5 21:34:00 63° NW 21:34:00 63° NW 21:39:26 10° NW
Cosmos 2333 Rocket 3.7 21:31:47 10° NW 21:36:42 30° WSW 21:37:00 30° WSW
ATLAS 5 CENTAUR R/B 4.4 21:47:42 10° NNW 21:49:33 17° N 21:49:33 17° N
CZ-4C R/B 4.2 22:03:01 10° W 22:05:24 23° WNW 22:05:24 23° WNW
